Temp
4 5 6 6 6 6 7 6 4 5 6 6 2 6 8 8 10 11 11 10 11 12 13 13 13 13 14 14 13 12 12 10 10 12 13 14 14 12 12 9 10 8 7 9
4 5 5 6 6 7 6 5 2 4 4 6 3 4 7 8 11 11 8 9 11 13 12 12 14 12 11 12 11 11 11 8 7 10 12 12 12 11 11 10 7 8 9 8
5 5 5 5 6 6 6 4 2 1 2 1 4 5 6 6 7 8 9 11 11 11 12 11 11 10 11 10 9 10 11 8 8 10 10 9 10 10 10 9 5 7 7 8
5 5 5 5 5 6 5 2 1 2 2 1 3 5 5 5 5 5 6 9 9 9 9 9 9 9 9 8 9 9 7 6 6 7 8 8 8 8 8 9 9 7 7 9
2 2 2 3 2 2 3 1 0 1 0 1 2 3 3 4 4 4 4 7 9 6 5 7 7 8 7 8 8 8 7 4 3 5 7 8 7 7 8 8 8 8 8 8
1 1 2 1 1 2 0 1 1 3 0 1 2 2 3 3 4 3 6 6 5 5 5 7 8 8 8 7 7 6 6 5 5 6 7 6 5 6 7 8 8 8 6 8
1 1 2 1 1 2 2 2 3 2 2 1 2 3 4 4 3 3 4 6 5 6 7 8 8 7 7 7 6 7 5 5 4 5 5 2 7 8 9 8 8 9 9 8
0 1 1 2 3 4 4 4 5 4 2 2 2 3 2 2 2 2 3 4 5 6 6 2 3 2 5 5 7 6 6 4 2 2 4 5 7 7 8 8 6 8 7 7
1 0 1 1 2 3 4 4 5 5 2 1 4 3 3 1 0 1 3 4 5 5 1 1 2 1 4 4 6 7 6 4 1 3 1 2 4 8 8 8 5 6 7 6
0 1 1 2 2 3 4 4 5 5 2 2 4 2 2 3 1 -0 2 4 4 5 0 1 1 3 5 4 4 4 2 1 0 1 2 3 5 8 8 4 5 6 7 6
0 0 1 2 2 3 4 3 4 5 2 2 4 3 4 3 3 -0 2 2 2 -0 1 1 1 2 4 4 3 4 4 3 2 0 1 1 6 7 4 4 7 7 6 6
-0 0 1 1 2 2 3 3 4 4 3 1 2 3 4 5 5 3 3 2 1 2 -1 -1 -1 1 1 3 3 5 2 3 2 3 1 4 7 7 7 7 7 7 6 6
0 -0 0 1 1 1 3 3 3 4 2 2 3 2 3 4 4 4 4 3 3 3 4 -1 -2 2 1 1 2 3 4 5 2 3 4 4 6 6 6 6 6 6 6 5
-1 -1 -0 0 1 1 2 2 2 3 2 -1 1 2 3 3 3 4 5 4 3 4 3 1 -4 -2 1 -1 0 0 2 2 2 1 3 4 5 5 6 5 5 5 5 5
-1 -1 -1 -1 -0 0 1 1 1 2 2 -2 1 2 2 2 3 3 3 3 3 2 1 -4 -3 -1 -1 -4 -3 -2 1 0 -0 2 3 3 3 4 4 4 4 4 4 4
-1 -1 -1 -0 -0 0 1 0 0 1 2 2 -5 1 1 1 1 1 1 2 1 1 1 -1 1 2 1 -4 -3 3 3 3 3 2 3 3 3 3 3 4 4 4 4 4
-1 -1 -1 -0 -0 1 -0 -2 -1 -0 1 0 -5 -4 1 2 1 1 1 1 1 1 1 -1 -0 1 1 -6 -1 2 2 2 2 3 2 2 2 2 3 3 3 3 3 3
-1 -1 -1 -1 -1 -0 -1 -1 -1 -0 -0 -1 -5 -3 -1 1 0 0 0 1 0 -0 -0 -1 -3 -1 -1 -4 0 1 1 1 1 2 2 2 2 2 2 2 2 3 3 3
-2 -2 -2 -1 -1 -2 -2 -2 -2 -1 -1 -2 -3 -4 -5 0 -1 -2 -1 -0 -5 -1 -3 -4 -3 -3 -2 -0 0 0 1 1 2 2 1 2 2 2 2 1 1 1 1 2
-2 -3 -2 -3 -3 -2 -3 -3 -2 -2 -2 -3 -4 -2 -4 -0 -1 -3 -3 -1 -1 -4 -3 -1 -2 -2 0 1 2 1 1 2 2 1 1 2 1 1 1 1 1 -1 -1 2
-3 -3 -3 -3 -3 -3 -2 -4 -3 -3 -4 -4 -3 -2 -3 -0 -2 -2 -1 -2 -3 -1 -3 -2 -1 -1 1 2 2 2 2 1 1 2 3 2 3 1 -1 -1 -1 1 1 0
-3 -2 -3 -3 -3 -3 -3 -3 -3 -3 -2 -3 -3 -1 -0 0 1 -2 -1 -1 -3 -1 -1 -1 -0 -1 1 1 1 2 1 2 2 2 2 2 3 3 2 2 2 2 2 2
-2 -2 -3 -3 -3 -2 -4 -6 -2 -5 -2 0 0 -2 1 -1 -1 -1 -2 -1 -1 -1 -3 -0 0 0 -0 -1 -0 0 0 1 2 2 2 3 3 2 2 3 2 2 1 1
-3 -3 -3 -3 -5 -5 -4 -3 -5 1 1 1 2 -0 -1 -0 -1 -2 -2 -1 -1 -3 -1 1 0 -0 -1 -1 -2 -1 -1 -1 -1 -0 0 1 3 3 2 2 2 1 0 -1
-3 -3 -5 -4 -1 -1 -0 0 1 1 1 1 -0 -1 -0 -3 -3 -3 -2 -3 -3 -1 -2 -0 0 -0 -1 -1 -1 -1 -1 -1 -2 -2 -2 -2 -2 -1 -1 -1 -1 -1 -0 -1
-3 -3 -3 -2 -3 -5 -2 -2 0 0 0 0 -0 -2 -3 -1 -1 -1 -3 -0 -2 -2 -0 0 0 -1 -1 -1 -1 -1 -2 -2 -3 -4 -3 -3 -3 -2 -3 -3 -3 -3 -2 -2
-2 -3 -2 -2 -2 -2 -2 -2 -1 -1 -0 -5 -2 -2 -1 -2 -1 0 -1 -3 -2 -1 -0 -0 -1 -1 -2 -2 -2 -2 -2 -4 -4 -4 -4 -4 -4 -4 -4 -4 -4 -4 -4 -3
Height
1322 1331 1341 1349 1359 1371 1385 1385 1395 1399 1405 1409 1408 1415 1413 1426 1421 1425 1436 1436 1438 1435 1432 1438 1443 1437 1434 1441 1449 1459 1460 1472 1482 1475 1467 1467 1469 1472 1478 1496 1501 1504 1513 1499
1314 1324 1333 1342 1351 1360 1367 1373 1388 1394 1396 1391 1405 1410 1412 1418 1416 1417 1436 1433 1431 1432 1429 1438 1432 1437 1443 1440 1445 1451 1456 1474 1493 1484 1474 1470 1476 1476 1477 1484 1495 1498 1500 1499
1310 1319 1327 1336 1343 1351 1358 1369 1378 1391 1391 1390 1394 1406 1406 1418 1416 1421 1425 1424 1423 1432 1430 1427 1431 1441 1443 1442 1446 1449 1453 1468 1471 1471 1470 1476 1481 1482 1482 1486 1508 1502 1498 1491
1308 1313 1318 1328 1334 1341 1347 1357 1370 1374 1379 1389 1393 1397 1405 1411 1420 1422 1427 1425 1424 1430 1436 1433 1432 1438 1443 1445 1448 1451 1457 1475 1477 1477 1476 1477 1478 1480 1485 1486 1491 1501 1494 1486
1306 1314 1318 1324 1331 1336 1345 1349 1361 1371 1377 1387 1390 1398 1407 1408 1416 1422 1428 1425 1424 1431 1439 1439 1439 1435 1442 1443 1450 1454 1459 1478 1483 1487 1481 1478 1481 1480 1483 1485 1485 1487 1487 1484
1314 1317 1320 1326 1334 1344 1344 1351 1360 1365 1378 1383 1387 1395 1403 1408 1413 1422 1421 1422 1430 1438 1437 1437 1437 1436 1438 1441 1447 1455 1462 1471 1479 1480 1482 1483 1486 1476 1478 1478 1479 1481 1490 1478
1323 1328 1332 1337 1341 1343 1343 1352 1357 1359 1371 1380 1386 1390 1399 1404 1411 1420 1420 1421 1425 1438 1437 1438 1437 1443 1444 1443 1447 1450 1461 1467 1477 1485 1488 1511 1470 1468 1471 1471 1470 1473 1473 1473
1331 1334 1336 1341 1345 1349 1352 1353 1358 1359 1369 1378 1386 1394 1400 1404 1409 1418 1425 1423 1427 1433 1438 1449 1454 1459 1456 1455 1453 1453 1454 1466 1484 1491 1485 1476 1463 1465 1466 1468 1473 1470 1470 1471
1338 1342 1344 1346 1348 1352 1355 1359 1360 1362 1370 1379 1384 1392 1399 1407 1417 1422 1422 1421 1428 1433 1442 1450 1454 1462 1453 1458 1456 1453 1459 1463 1477 1483 1497 1491 1466 1460 1462 1464 1474 1469 1469 1470
1343 1346 1346 1349 1353 1357 1360 1359 1359 1366 1371 1379 1385 1389 1399 1399 1409 1418 1421 1422 1426 1432 1446 1455 1457 1453 1445 1454 1455 1460 1466 1474 1482 1481 1483 1474 1456 1457 1458 1475 1469 1463 1465 1466
1347 1349 1351 1353 1356 1358 1359 1362 1367 1368 1375 1384 1387 1393 1398 1405 1406 1414 1419 1424 1428 1436 1446 1452 1454 1454 1447 1448 1449 1449 1454 1463 1470 1481 1485 1484 1450 1454 1462 1460 1456 1458 1460 1460
1353 1354 1354 1356 1359 1362 1366 1369 1370 1375 1380 1392 1393 1400 1403 1402 1400 1405 1414 1420 1424 1429 1439 1444 1446 1449 1447 1446 1451 1442 1454 1449 1459 1460 1458 1444 1445 1447 1450 1451 1451 1452 1455 1457
1358 1360 1361 1363 1366 1370 1372 1373 1376 1380 1387 1396 1398 1398 1401 1402 1405 1410 1415 1419 1425 1429 1432 1437 1443 1445 1447 1449 1447 1441 1440 1440 1449 1449 1443 1444 1444 1444 1446 1447 1446 1448 1452 1453
1369 1369 1372 1373 1375 1376 1378 1378 1381 1384 1389 1396 1403 1405 1406 1407 1409 1413 1413 1418 1424 1428 1432 1436 1445 1449 1443 1448 1445 1446 1441 1441 1442 1443 1441 1440 1440 1441 1442 1442 1443 1445 1448 1449
1375 1379 1381 1382 1383 1382 1379 1383 1386 1388 1392 1399 1404 1407 1406 1409 1413 1415 1418 1423 1426 1430 1433 1438 1445 1444 1448 1446 1446 1441 1437 1438 1444 1437 1437 1436 1435 1438 1439 1439 1439 1439 1441 1441
1379 1381 1382 1384 1383 1383 1385 1390 1394 1393 1392 1393 1408 1409 1411 1413 1414 1417 1421 1424 1430 1433 1436 1439 1440 1440 1446 1449 1441 1421 1430 1430 1427 1424 1430 1430 1428 1431 1432 1432 1433 1433 1433 1433
1380 1381 1381 1382 1381 1382 1384 1392 1394 1391 1393 1400 1410 1410 1411 1411 1413 1418 1422 1427 1430 1432 1433 1435 1438 1439 1440 1441 1425 1403 1417 1418 1418 1420 1424 1422 1422 1422 1424 1425 1426 1427 1428 1427
1382 1383 1384 1384 1385 1388 1391 1394 1395 1396 1397 1400 1408 1410 1409 1412 1416 1420 1424 1427 1430 1431 1433 1435 1436 1437 1434 1429 1404 1406 1408 1410 1411 1411 1413 1413 1414 1415 1415 1416 1418 1419 1420 1419
1385 1386 1387 1389 1391 1394 1398 1399 1400 1400 1405 1405 1409 1413 1420 1413 1417 1421 1425 1427 1432 1432 1432 1430 1431 1429 1423 1402 1401 1400 1402 1403 1401 1402 1405 1405 1405 1406 1407 1409 1410 1410 1411 1412
1388 1391 1392 1396 1399 1400 1402 1403 1404 1405 1406 1408 1410 1411 1414 1415 1418 1422 1426 1427 1428 1431 1424 1423 1424 1416 1401 1399 1397 1395 1395 1396 1397 1399 1400 1399 1398 1401 1401 1401 1401 1400 1401 1406
1391 1394 1398 1401 1402 1403 1405 1406 1407 1409 1410 1409 1409 1409 1412 1414 1417 1420 1423 1423 1424 1423 1421 1421 1417 1407 1396 1395 1392 1390 1389 1388 1389 1391 1393 1394 1392 1396 1393 1393 1394 1393 1395 1396
1392 1394 1399 1402 1404 1405 1407 1407 1407 1407 1406 1404 1405 1406 1410 1413 1414 1416 1420 1420 1422 1416 1415 1415 1409 1399 1397 1395 1393 1390 1387 1383 1379 1384 1388 1390 1390 1389 1390 1389 1390 1391 1392 1394
1394 1396 1400 1403 1405 1405 1408 1415 1404 1408 1400 1401 1403 1406 1409 1412 1414 1415 1417 1417 1416 1413 1417 1408 1400 1398 1396 1396 1394 1391 1388 1385 1384 1384 1386 1387 1387 1387 1387 1386 1387 1391 1393 1396
1396 1400 1403 1404 1407 1405 1402 1401 1401 1398 1397 1399 1401 1404 1407 1410 1412 1413 1417 1412 1412 1416 1410 1399 1398 1398 1397 1396 1394 1392 1390 1388 1387 1386 1385 1385 1385 1385 1386 1388 1390 1392 1395 1397
1398 1399 1403 1401 1398 1398 1398 1398 1398 1399 1400 1401 1403 1405 1407 1409 1412 1412 1413 1416 1415 1406 1406 1399 1398 1398 1398 1397 1395 1393 1391 1390 1389 1389 1388 1388 1388 1388 1389 1391 1392 1394 1395 1397
1398 1398 1398 1397 1398 1398 1398 1398 1398 1400 1401 1402 1404 1405 1409 1408 1407 1409 1411 1405 1408 1401 1397 1397 1397 1398 1397 1397 1395 1394 1393 1392 1391 1390 1390 1390 1390 1391 1392 1392 1394 1395 1396 1399
1398 1397 1396 1397 1398 1398 1398 1399 1399 1400 1401 1404 1404 1406 1403 1402 1402 1400 1400 1405 1397 1395 1395 1396 1396 1396 1396 1396 1395 1395 1394 1393 1393 1392 1392 1392 1392 1393 1394 1395 1396 1397 1398 1400
Wind_Speed
42 41 44 43 47 47 45 29 8 30 50 10 3 11 11 12 15 6 6 2 14 6 12 17 14 12 10 15 14 11 5 5 5 4 2 3 2 4 6 4 5 4 4 4
41 41 39 42 44 45 48 25 8 31 37 14 4 4 6 7 11 12 11 10 2 13 7 6 13 6 3 11 5 9 6 2 2 3 3 4 4 3 4 5 3 4 4 5
36 37 39 35 39 47 49 15 5 3 10 7 10 8 9 6 3 5 1 6 6 4 3 1 7 4 2 3 6 10 6 3 4 9 4 3 4 1 3 4 3 2 4 7
28 32 45 46 50 57 39 6 4 5 6 3 8 8 7 10 5 4 3 3 4 3 5 2 4 4 5 6 7 5 5 4 3 4 4 3 1 3 5 2 3 5 6 9
35 34 33 40 34 33 16 9 6 6 6 14 13 5 4 6 8 7 6 1 7 11 4 3 5 7 3 4 2 3 2 3 3 2 3 3 4 5 5 7 7 7 7 14
25 25 23 20 22 21 11 16 15 9 5 6 5 5 6 9 10 2 11 6 12 13 4 7 3 10 10 7 6 3 5 5 3 2 1 4 6 5 8 4 4 5 5 11
24 23 24 21 14 12 21 22 11 5 4 5 4 12 11 14 8 5 3 10 7 9 12 18 19 19 15 12 6 6 7 6 3 3 3 2 5 0 3 4 7 1 6 6
18 17 20 17 18 21 24 18 12 5 4 7 12 14 10 17 16 5 8 7 12 16 7 4 4 4 5 4 0 3 4 5 3 5 4 4 8 6 5 3 4 2 3 1
23 21 17 16 14 14 13 15 16 16 8 0 16 11 19 7 5 3 1 15 14 6 3 3 4 5 5 5 3 5 4 4 4 3 4 8 4 2 7 5 8 4 2 2
22 22 20 19 18 15 14 18 14 14 10 10 17 4 8 11 5 3 4 8 8 9 3 2 2 3 4 6 7 5 4 1 6 3 3 6 7 5 2 4 7 8 7 4
18 18 18 16 15 14 14 17 13 17 14 17 12 17 12 15 11 4 13 7 3 3 3 3 4 3 4 3 4 6 7 7 4 3 3 9 8 7 9 8 6 9 8 3
18 15 10 9 7 5 8 14 16 21 13 15 21 20 13 16 13 22 15 6 5 6 3 1 2 1 2 5 3 2 3 6 5 8 7 6 9 7 2 4 8 9 7 5
16 16 15 14 14 13 11 13 12 12 17 13 10 12 12 11 10 20 8 6 6 6 4 5 2 2 2 2 4 2 2 3 3 2 3 5 11 7 5 3 7 5 2 2
21 19 15 14 14 13 10 14 10 12 9 4 6 8 7 7 9 11 12 14 9 10 5 4 2 2 3 2 2 2 5 2 1 4 4 10 16 12 8 6 4 6 4 6
20 20 18 16 17 17 16 14 13 10 5 5 5 7 6 3 4 8 9 11 11 6 3 3 2 1 2 2 2 5 8 5 4 9 8 6 13 14 12 13 17 19 21 20
16 15 13 12 14 17 13 7 11 11 11 7 2 3 4 5 4 6 7 6 6 4 4 3 3 4 5 3 5 15 24 26 26 19 19 25 34 33 22 22 23 22 20 19
13 12 10 12 14 9 12 7 7 11 8 4 2 3 3 9 8 7 7 6 3 2 3 4 4 6 7 2 11 31 23 24 26 28 27 24 25 21 16 13 19 21 22 21
11 11 10 11 12 14 13 11 7 6 7 5 3 2 4 5 5 4 5 5 4 3 4 3 4 4 6 4 16 20 21 27 32 35 36 38 38 35 34 29 25 22 21 22
11 9 8 8 7 6 6 5 4 5 5 3 2 3 3 5 4 4 4 3 1 3 3 4 5 2 5 12 16 21 22 21 25 26 29 30 32 31 24 17 15 19 20 18
12 11 5 4 5 6 6 2 2 3 2 2 1 1 1 6 3 2 4 3 3 1 4 5 2 4 27 28 30 30 26 22 19 24 22 23 12 12 22 25 27 24 21 18
14 4 4 9 7 3 2 2 1 1 1 4 5 7 3 6 3 2 6 2 2 2 3 3 3 3 3 14 14 7 10 17 25 29 27 20 21 20 25 21 13 9 15 18
8 9 13 7 2 2 1 2 2 2 3 5 4 7 10 6 4 3 3 2 2 4 5 2 2 3 7 8 7 11 12 11 3 17 19 20 25 24 21 20 9 10 12 15
14 4 4 3 1 2 3 2 2 1 4 8 7 2 6 3 4 2 2 3 3 6 1 3 3 1 3 7 7 7 7 9 8 5 7 11 10 14 15 5 13 14 20 22
3 3 4 3 2 3 3 3 3 1 3 10 10 5 4 3 2 2 2 3 2 2 1 3 0 1 4 6 7 9 11 10 9 7 4 6 9 9 11 14 19 22 22 20
3 2 3 3 4 1 2 2 2 4 6 6 4 3 3 1 1 1 1 3 3 3 3 1 4 1 1 3 4 7 10 11 10 6 6 8 9 13 15 15 16 16 16 16
1 2 1 2 2 2 1 1 3 3 7 5 2 2 2 3 3 3 5 2 4 3 2 4 3 3 2 3 2 5 7 8 8 6 5 5 7 8 10 11 12 13 13 13
2 3 6 4 3 4 2 1 3 6 7 2 2 2 6 1 2 3 4 4 2 4 7 3 6 2 3 3 4 2 4 5 5 5 4 5 7 8 10 12 11 11 11 11
Wind_Direction
208 213 210 212 209 209 202 192 179 182 176 181 148 209 155 216 206 231 171 211 255 221 185 196 193 194 170 179 153 158 174 142 195 195 355 141 121 157 144 153 209 193 184 258
203 205 212 210 205 199 179 169 147 175 188 202 168 147 177 214 169 165 173 193 179 245 222 196 203 129 29 137 114 152 172 183 105 12 340 358 95 66 103 109 85 188 155 250
199 200 206 213 206 201 184 153 132 181 194 133 154 159 162 148 33 145 314 180 126 282 224 311 139 119 118 85 98 97 98 95 189 215 158 140 157 167 88 117 107 186 233 298
180 183 190 191 185 185 177 149 152 179 168 156 155 129 145 149 145 62 331 318 119 137 193 64 88 89 121 50 111 75 97 126 86 82 101 85 141 253 98 99 156 175 240 227
119 119 135 142 140 160 153 120 130 95 92 130 120 119 148 140 124 150 159 82 88 79 75 258 173 131 138 157 117 99 68 112 108 112 177 157 261 240 166 213 245 250 267 272
111 109 129 120 143 154 102 113 123 131 128 136 116 140 140 161 140 56 175 130 101 90 104 112 83 88 109 131 131 119 118 130 105 273 211 55 311 266 207 170 210 200 240 260
119 132 132 122 115 136 131 137 121 111 108 98 108 119 112 124 114 128 70 98 104 150 116 93 84 68 54 84 80 124 136 120 100 130 101 227 234 58 228 214 260 324 280 306
131 122 120 133 130 127 133 130 124 95 88 115 120 138 125 103 94 87 109 51 130 140 119 69 68 5 31 342 156 129 122 120 127 155 197 312 278 189 200 132 285 214 160 301
125 130 123 117 128 136 133 124 114 114 121 155 155 143 146 132 134 108 101 106 146 112 84 69 141 174 150 181 201 196 125 61 114 160 167 204 242 128 96 100 272 140 125 10
124 132 122 120 131 130 139 115 132 122 95 51 143 114 154 134 119 110 136 138 102 111 96 108 123 215 179 164 173 164 130 107 178 147 206 275 225 185 343 170 244 172 152 135
120 132 135 135 112 114 133 92 100 121 96 67 106 146 134 147 132 134 157 87 30 68 114 156 186 185 217 167 211 173 166 168 191 98 169 261 194 211 171 200 197 216 208 210
111 118 132 131 136 124 119 96 102 112 96 101 103 124 135 168 159 137 156 123 137 152 107 141 109 179 152 169 213 173 199 181 181 184 208 211 189 200 172 242 255 237 220 226
110 106 100 103 109 134 147 135 117 111 103 91 93 85 103 102 125 148 138 121 143 157 117 151 163 147 103 171 233 184 230 161 189 99 252 212 229 230 225 245 209 168 211 298
130 123 119 109 114 132 145 128 124 122 99 92 81 107 105 123 118 147 161 143 150 151 155 92 115 144 177 206 226 188 210 52 187 267 266 277 271 266 254 189 238 187 240 288
135 135 128 114 114 118 117 112 98 99 119 138 124 96 90 69 149 158 153 149 143 119 95 77 206 194 72 298 56 235 192 185 193 251 208 241 264 277 283 288 292 293 296 292
131 132 129 119 111 126 125 108 75 94 97 97 79 102 145 159 119 114 153 186 145 135 139 160 200 184 185 196 239 252 247 245 249 252 257 265 274 284 281 282 283 282 281 280
128 122 111 89 72 80 74 85 75 67 75 89 49 356 118 165 143 133 130 149 132 158 155 192 197 194 205 224 259 264 263 259 257 258 262 260 259 267 273 264 283 280 278 278
135 127 110 94 87 87 73 70 61 45 54 62 80 316 60 143 116 113 164 152 166 194 200 196 193 196 208 253 252 276 267 256 253 252 251 258 266 271 273 278 273 266 263 267
152 142 115 95 74 54 79 80 39 37 60 79 69 123 219 143 95 104 112 154 67 204 213 225 166 210 227 239 251 253 264 245 252 258 256 261 262 264 261 252 269 274 255 255
159 125 66 69 78 99 95 58 33 60 69 95 164 244 175 142 111 124 100 154 215 221 230 156 204 249 245 257 266 274 266 261 259 249 255 261 229 254 292 293 275 274 256 252
164 111 85 119 126 128 51 79 43 125 325 196 215 202 135 174 121 149 195 165 197 241 253 155 234 261 244 334 320 340 300 271 255 246 251 262 268 275 288 277 279 221 216 226
128 134 115 136 121 89 294 177 166 189 236 183 175 192 186 154 179 114 177 206 149 249 141 211 248 271 7 20 1 352 357 0 338 231 243 246 259 273 283 290 223 249 223 200
127 76 81 103 136 195 149 213 259 250 187 187 167 102 140 127 172 178 162 209 236 119 159 225 236 40 343 349 5 4 21 50 77 127 201 222 243 239 245 219 167 179 172 173
82 133 135 169 201 244 196 192 195 181 143 152 135 109 139 142 109 168 158 243 120 291 246 243 86 348 2 8 44 54 49 50 58 69 114 170 193 194 170 160 164 171 171 172
108 132 196 207 235 214 112 45 83 86 120 127 95 75 113 80 114 194 134 10 259 223 230 296 271 188 324 333 41 48 42 40 48 63 94 115 137 145 150 159 164 173 175 175
10 233 347 254 47 352 335 331 169 145 145 117 108 126 94 200 185 164 210 214 219 236 179 167 202 267 251 294 346 41 32 25 32 58 84 126 145 149 150 153 158 163 168 173
252 265 246 250 295 249 239 254 237 179 161 161 140 172 217 139 205 214 182 208 220 202 164 211 194 189 219 267 297 343 20 30 51 69 101 119 136 145 150 151 156 163 165 166